Temperature
17 17 17 18 17 17 17 17 18 19 19 19 18 18 17 17 17 17 17 17 17 17 17 17 17 16 16 16 16 16 16 16 15 15 15 15 15 15
17 17 17 17 17 17 17 17 17 18 18 19 18 18 17 17 17 17 16 17 17 17 17 17 16 16 16 16 16 16 15 15 15 15 15 15 15 15
17 17 17 17 17 17 17 17 17 17 17 18 18 17 17 17 17 16 16 16 16 16 16 16 16 16 16 16 16 15 15 15 15 15 15 15 14 14
17 17 17 17 17 17 17 17 17 17 17 17 17 17 17 16 16 16 16 16 16 16 16 16 16 15 15 15 15 15 15 15 15 14 14 14 14 14
17 17 17 17 17 17 17 17 17 17 16 16 17 17 16 16 16 16 16 16 16 16 16 16 15 15 15 15 15 15 15 15 14 14 14 14 14 14
16 16 16 16 16 16 16 16 16 16 16 16 16 16 16 16 16 16 16 16 15 15 15 15 15 15 15 15 15 14 14 14 14 14 14 13 13 13
16 16 16 16 16 16 16 16 16 16 16 16 16 16 16 16 15 15 15 15 15 15 15 15 14 14 14 14 14 14 14 14 13 13 13 13 13 13
16 16 16 16 16 16 16 16 16 16 15 15 16 16 15 15 15 15 15 15 15 15 14 14 14 14 14 14 14 14 13 13 13 13 13 13 12 12
15 16 15 16 15 15 16 16 16 16 15 15 15 15 15 15 15 15 15 14 14 14 14 14 14 14 13 13 13 13 13 13 13 13 13 12 12 12
15 15 15 15 15 15 15 15 15 15 15 15 15 15 15 15 15 14 14 14 14 14 14 13 13 13 13 13 13 13 13 13 13 12 12 12 12 12
15 15 15 15 15 15 15 15 15 15 15 15 15 15 15 14 14 14 14 14 14 14 13 13 13 13 13 13 12 12 12 12 12 12 12 12 12 12
14 14 14 14 14 15 14 14 14 14 14 14 14 14 14 14 14 14 13 14 14 14 13 13 13 13 13 12 12 12 12 12 12 12 12 12 11 11
14 14 14 14 14 14 14 14 14 14 14 14 14 14 14 14 14 13 13 13 13 13 13 13 12 12 12 12 12 12 12 12 11 11 11 11 11 11
13 13 13 13 13 14 14 13 14 13 13 13 13 13 13 13 13 13 13 13 13 12 12 12 12 12 12 12 12 11 11 11 11 11 11 11 11 11
13 13 13 13 13 13 13 13 13 13 13 13 13 13 13 13 13 12 12 12 12 12 12 12 11 11 11 12 11 11 11 11 11 11 10 10 10 10
12 12 12 12 12 12 12 12 12 12 12 12 12 12 12 12 12 12 12 12 12 11 11 11 11 11 11 11 11 11 11 10 10 10 10 10 10 10
11 11 12 12 12 12 12 12 12 12 12 12 12 12 12 12 12 11 11 11 11 11 11 11 11 11 10 10 10 10 10 10 10 10 9 9 9 9
11 11 11 11 11 12 12 12 12 11 11 11 11 11 11 11 11 11 11 11 11 11 10 10 10 10 10 10 10 10 10 10 9 9 9 9 9 9
11 11 11 11 11 11 11 11 11 11 11 11 11 11 11 11 10 10 10 10 10 10 10 10 10 10 10 10 9 9 9 9 9 9 9 9 9 9
10 10 11 11 11 11 11 11 11 11 10 10 10 10 10 10 10 10 10 10 10 10 10 10 9 9 9 9 9 9 9 9 9 9 9 9 9 8
10 10 10 10 10 10 10 10 10 10 10 9 10 10 10 10 10 10 10 9 9 9 9 9 9 9 9 9 9 9 9 8 8 8 8 8 8 8
10 10 10 9 9 9 9 9 9 9 9 9 9 9 9 9 9 9 9 9 9 9 9 9 9 9 9 9 9 9 8 8 8 8 8 8 8 8
9 9 9 9 9 9 9 9 9 9 8 8 8 8 8 8 8 9 9 9 9 9 9 9 9 8 8 9 8 8 8 8 8 8 8 8 8 7
Wind_Speed
6 6 6 5 6 6 5 5 6 6 5 3 3 2 2 3 2 4 4 6 8 9 9 9 9 8 8 8 7 7 7 7 6 6 6 5 5 5
5 6 6 7 5 6 6 6 6 7 7 4 3 3 2 4 3 4 5 6 9 9 9 9 9 9 8 7 7 7 7 6 6 5 5 4 4 4
7 7 8 8 7 6 6 6 6 6 7 6 4 2 3 5 3 4 5 6 6 10 9 9 9 9 8 8 8 7 7 7 6 6 5 5 5 4
7 8 8 7 7 7 7 7 7 6 7 8 5 4 5 5 4 5 5 5 4 8 9 9 9 9 9 8 7 7 6 6 6 6 6 5 5 5
7 8 8 8 8 7 7 7 7 7 6 7 7 4 4 4 5 6 5 3 5 6 9 9 9 9 9 9 8 8 7 7 7 7 6 6 5 5
7 7 8 8 8 8 7 8 7 8 7 7 7 5 5 4 4 5 5 4 4 4 3 5 7 9 10 10 10 9 9 8 8 7 7 7 6 5
7 7 7 6 6 6 7 7 7 7 7 7 6 5 5 4 5 5 5 4 4 4 3 4 5 5 7 10 11 9 8 8 8 8 8 7 7 6
7 7 7 7 7 7 8 8 7 8 7 7 7 7 6 6 5 5 5 5 4 3 4 4 4 4 4 5 8 9 9 8 8 8 7 7 7 6
7 8 8 6 6 7 7 9 9 9 9 9 9 8 7 6 6 7 6 6 5 3 4 5 5 5 4 4 8 10 10 9 8 8 8 7 7 7
8 8 8 7 6 5 7 7 7 8 8 9 8 9 8 6 6 7 6 6 5 4 4 5 4 5 5 4 10 10 10 9 9 9 8 8 8 8
7 7 7 7 3 4 7 8 8 7 6 6 7 6 5 4 5 5 5 5 5 5 4 5 4 4 4 5 7 10 10 10 10 10 10 10 9 9
6 6 5 6 5 4 7 8 8 7 6 4 5 6 6 6 7 7 6 6 6 5 4 5 4 4 4 4 4 6 7 9 10 11 11 11 10 8
6 6 5 3 5 5 7 8 7 7 6 5 5 5 5 5 6 6 6 6 6 6 5 5 5 5 5 4 4 5 5 5 6 7 10 11 11 8
7 7 5 2 5 7 7 7 7 7 6 5 5 5 4 4 4 4 5 6 5 6 5 5 5 5 5 5 5 4 5 5 5 5 5 8 10 11
6 6 6 6 7 8 8 8 7 6 5 5 6 5 4 4 4 3 4 5 5 5 4 4 5 5 6 6 6 5 5 5 5 4 4 4 5 5
6 6 8 8 8 7 5 6 6 6 6 6 6 5 4 4 4 4 4 4 4 4 4 5 5 5 6 5 6 6 5 5 4 4 4 4 4 5
6 6 6 5 5 5 5 5 5 5 5 5 5 4 4 4 4 4 4 5 5 5 4 3 4 4 4 5 5 5 4 5 4 3 4 4 4 4
5 6 6 6 6 6 6 5 5 5 5 5 5 5 5 5 4 4 4 5 5 5 4 4 3 3 3 3 3 4 4 4 3 3 5 5 4 3
5 6 6 6 6 6 6 5 5 4 4 4 5 5 5 5 5 5 5 5 5 5 4 4 4 4 5 5 4 4 4 3 3 4 4 4 4 4
5 6 6 6 6 6 5 5 4 4 4 4 5 5 5 5 5 6 5 5 5 4 4 4 5 5 5 5 4 4 6 5 4 4 4 4 3 2
5 6 6 6 5 5 5 5 5 4 4 5 5 5 5 6 6 6 5 4 5 5 5 5 4 5 5 4 5 4 4 5 4 4 4 4 4 4
6 6 5 5 5 5 5 5 5 4 4 4 5 5 5 5 6 6 5 4 5 5 5 4 3 5 5 6 6 5 4 3 5 5 4 4 5 5
5 5 5 5 4 4 4 5 5 4 4 4 5 5 5 5 6 6 5 5 4 4 5 4 4 4 5 6 5 5 5 5 4 4 4 5 5 5
Wind_Direction
244 236 247 254 253 259 260 266 277 281 273 221 237 244 259 263 204 238 237 189 199 205 210 213 214 212 213 215 217 215 215 218 228 235 244 252 259 264
249 253 254 259 257 253 257 258 260 272 280 281 253 263 283 280 223 255 252 189 200 204 207 210 212 212 212 213 213 208 206 207 213 220 228 239 245 252
254 248 248 260 260 259 253 254 254 256 264 269 260 248 244 268 267 265 253 241 218 195 202 206 210 211 211 208 200 199 202 206 210 217 221 227 233 242
257 260 259 256 252 258 259 254 254 256 259 266 265 252 232 240 246 254 257 248 248 179 190 197 201 203 202 201 197 197 197 200 207 214 221 225 230 238
264 264 265 263 259 257 257 259 257 253 252 260 260 257 252 240 238 244 247 255 253 182 180 189 194 196 198 198 196 197 201 204 209 214 218 220 227 233
266 268 269 266 265 265 258 257 259 262 255 257 263 258 248 237 239 248 243 230 243 224 197 190 189 196 200 197 194 198 205 209 213 216 219 221 225 228
264 266 267 272 285 277 276 271 264 260 259 256 258 255 250 240 246 249 250 241 228 228 223 212 197 202 196 196 195 195 200 206 210 215 218 220 220 221
265 267 264 252 253 248 261 271 274 263 261 261 258 258 255 250 250 252 252 246 246 217 230 238 228 228 217 212 177 184 195 202 205 206 208 210 214 221
267 270 273 271 254 262 249 240 246 245 250 259 265 266 263 250 247 244 242 248 258 236 233 242 238 243 235 193 166 183 193 199 204 207 207 211 217 223
264 265 268 274 275 277 271 264 257 248 240 243 257 265 267 260 241 244 245 239 241 234 231 253 244 251 242 202 173 182 192 200 207 212 213 216 219 223
267 267 270 269 274 282 270 269 267 262 238 234 251 265 282 264 249 246 237 238 247 236 224 244 249 253 246 225 187 183 194 201 208 215 218 218 220 227
264 260 250 263 278 261 265 269 268 269 271 247 236 235 236 226 215 228 236 242 253 252 228 232 235 241 249 235 218 203 207 206 209 214 217 218 219 238
277 274 270 213 247 253 261 267 274 282 272 259 247 240 231 225 220 223 235 245 252 254 236 228 239 240 245 247 237 229 228 221 213 215 213 213 217 233
279 280 288 267 254 250 254 267 273 268 262 260 256 251 244 238 232 229 233 244 253 256 254 241 246 245 244 250 247 236 237 232 228 228 218 201 213 219
280 292 296 279 260 249 239 241 244 250 254 254 254 254 254 253 246 235 234 236 240 246 238 230 244 247 245 247 247 244 244 238 230 232 229 223 228 226
277 270 252 249 249 257 249 237 241 247 252 257 260 263 262 255 247 244 240 233 234 233 225 229 236 243 247 249 245 242 242 238 232 236 241 239 231 231
293 281 279 270 261 258 251 248 248 245 248 254 259 260 262 261 255 245 242 239 239 236 227 225 222 229 249 254 243 242 240 237 227 225 241 247 244 239
286 280 280 278 274 272 266 259 252 253 256 256 255 258 260 260 259 255 252 245 242 237 229 217 209 224 234 237 249 244 240 239 232 224 241 243 245 243
268 276 282 283 282 280 278 274 268 265 263 266 266 263 263 264 262 258 251 247 246 239 230 219 214 220 228 235 220 211 235 239 234 231 240 249 254 250
277 281 282 284 287 286 286 285 286 287 279 272 273 270 268 267 264 260 253 252 251 245 235 226 221 224 229 240 236 218 208 219 222 233 241 249 256 256
284 285 287 288 290 290 291 291 290 285 286 287 287 282 275 269 267 267 260 240 244 245 238 235 229 228 234 236 231 218 201 191 210 230 232 237 246 249
287 288 290 290 288 285 285 285 283 278 276 281 289 291 292 284 271 264 258 249 244 243 247 244 220 221 225 227 230 225 218 207 193 192 213 242 254 253
291 291 289 289 288 284 280 276 278 280 282 284 286 288 288 287 285 276 259 246 244 241 239 237 230 225 225 223 228 227 219 219 219 216 212 195 200 213
Height
1548 1548 1548 1548 1548 1547 1547 1546 1547 1545 1544 1543 1543 1543 1542 1542 1540 1540 1539 1538 1538 1538 1538 1537 1537 1537 1537 1537 1537 1537 1537 1537 1537 1537 1537 1536 1535 1535
1544 1544 1544 1544 1544 1543 1543 1543 1543 1543 1541 1541 1540 1540 1539 1539 1537 1537 1536 1535 1534 1534 1534 1534 1534 1534 1534 1534 1534 1534 1534 1534 1534 1533 1533 1533 1532 1531
1541 1541 1540 1540 1540 1540 1540 1539 1539 1538 1538 1537 1537 1535 1534 1534 1534 1533 1533 1532 1532 1531 1530 1530 1530 1530 1530 1530 1530 1530 1530 1530 1530 1530 1530 1529 1529 1529
1537 1537 1537 1537 1536 1535 1535 1535 1534 1534 1534 1533 1533 1532 1530 1530 1529 1529 1530 1530 1529 1528 1527 1527 1526 1526 1526 1526 1527 1527 1527 1527 1526 1526 1526 1526 1526 1525
1534 1533 1533 1532 1531 1531 1530 1530 1530 1530 1530 1529 1529 1528 1527 1527 1526 1526 1526 1525 1525 1525 1524 1523 1523 1523 1523 1523 1523 1523 1523 1523 1523 1523 1522 1522 1522 1522
1530 1529 1529 1528 1528 1527 1527 1526 1526 1526 1526 1525 1525 1524 1524 1523 1523 1523 1522 1522 1522 1522 1521 1520 1520 1519 1519 1519 1519 1519 1519 1519 1519 1519 1519 1519 1518 1518
1526 1525 1524 1524 1523 1523 1523 1522 1522 1521 1521 1520 1520 1520 1520 1519 1519 1519 1519 1519 1518 1518 1518 1517 1517 1516 1516 1516 1516 1516 1516 1516 1516 1516 1516 1515 1515 1515
1522 1521 1520 1519 1519 1518 1518 1518 1517 1517 1517 1516 1516 1516 1515 1516 1515 1515 1515 1515 1515 1515 1514 1514 1514 1514 1514 1513 1512 1512 1512 1512 1512 1512 1512 1512 1511 1511
1517 1517 1517 1517 1515 1514 1513 1513 1512 1512 1512 1512 1512 1511 1511 1511 1511 1511 1511 1511 1511 1511 1510 1510 1511 1510 1510 1510 1509 1509 1509 1509 1509 1509 1508 1508 1508 1507
1513 1512 1512 1512 1511 1510 1509 1509 1508 1507 1507 1507 1507 1507 1507 1507 1507 1507 1506 1506 1506 1507 1507 1507 1506 1507 1507 1506 1505 1505 1505 1505 1505 1505 1505 1504 1504 1504
1508 1508 1507 1507 1506 1505 1505 1504 1503 1503 1502 1502 1502 1502 1502 1502 1502 1503 1503 1503 1503 1503 1503 1503 1503 1503 1503 1503 1502 1502 1502 1501 1501 1501 1501 1501 1500 1500
1504 1503 1502 1502 1501 1501 1500 1500 1499 1498 1498 1497 1497 1497 1497 1497 1497 1498 1499 1499 1499 1499 1498 1499 1499 1499 1499 1500 1499 1498 1498 1498 1497 1497 1497 1497 1496 1496
1500 1499 1498 1497 1496 1496 1495 1495 1494 1494 1494 1493 1493 1493 1492 1492 1493 1493 1494 1494 1495 1494 1494 1494 1494 1495 1495 1495 1495 1495 1495 1494 1494 1493 1493 1492 1492 1492
1495 1495 1494 1492 1491 1491 1490 1490 1490 1490 1490 1489 1489 1489 1489 1489 1488 1488 1488 1488 1489 1489 1489 1489 1489 1489 1490 1490 1491 1491 1491 1491 1490 1490 1489 1489 1488 1488
1490 1489 1488 1487 1486 1485 1485 1485 1485 1485 1485 1485 1485 1485 1484 1484 1484 1483 1483 1483 1483 1484 1484 1484 1485 1485 1485 1486 1486 1486 1486 1486 1486 1486 1486 1485 1485 1485
1485 1484 1483 1482 1481 1481 1480 1480 1480 1480 1480 1480 1480 1480 1480 1480 1479 1479 1479 1479 1479 1479 1479 1479 1480 1480 1480 1480 1481 1481 1481 1482 1482 1482 1482 1482 1482 1481
1480 1479 1479 1478 1477 1477 1476 1476 1476 1476 1476 1476 1476 1476 1475 1475 1475 1475 1474 1474 1474 1474 1474 1475 1475 1476 1476 1476 1476 1476 1477 1477 1478 1478 1478 1479 1478 1478
1477 1475 1475 1474 1473 1473 1473 1472 1472 1471 1471 1471 1472 1472 1471 1471 1471 1471 1471 1470 1470 1469 1470 1470 1470 1471 1471 1471 1472 1472 1473 1473 1474 1474 1474 1475 1475 1475
1473 1472 1471 1471 1470 1469 1468 1467 1468 1467 1467 1467 1467 1467 1467 1467 1467 1467 1467 1466 1466 1466 1466 1466 1466 1466 1466 1466 1467 1468 1469 1469 1470 1470 1471 1471 1471 1471
1470 1469 1468 1467 1466 1465 1465 1464 1464 1464 1463 1463 1463 1462 1463 1463 1463 1463 1463 1462 1462 1462 1462 1462 1462 1462 1462 1463 1464 1464 1465 1465 1466 1467 1467 1468 1468 1467
1467 1465 1465 1464 1463 1462 1461 1461 1460 1460 1459 1459 1458 1458 1458 1458 1458 1458 1458 1457 1458 1458 1458 1457 1457 1458 1459 1461 1461 1462 1462 1462 1462 1463 1464 1464 1464 1464
1463 1462 1461 1460 1459 1458 1458 1457 1457 1456 1456 1456 1455 1454 1454 1454 1453 1454 1454 1453 1453 1453 1454 1454 1454 1455 1456 1456 1457 1458 1458 1459 1459 1459 1460 1461 1461 1461
1460 1458 1457 1457 1456 1455 1454 1453 1453 1452 1452 1452 1451 1451 1450 1450 1449 1449 1448 1448 1448 1449 1449 1450 1451 1451 1452 1452 1453 1454 1455 1455 1456 1457 1457 1457 1457 1457